Regional Weather Roundup
Issued by NWS Newport/Morehead, NC

Current Version | Previous Version | Text Only | Print | Product List | Glossary Off
Versions: 1 2 3 4 5 6 7 8 9 10 11 12 13 14 15 16 17 18 19 20 21 22 23 24 25 26 27 28 29 30 31 32 33 34 35 36 37 38 39 40 41 42 43 44 45 46 47 48 49 50
000 ASUS42 KMHX 280212 RWRMHX WEATHER ROUNDUP FOR EASTERN NORTH CAROLINA NATIONAL WEATHER SERVICE NEWPORT/MOREHEAD CITY NC 1000 PM EDT FRI MAR 27 2015 NOTE: "FAIR" INDICATES FEW OR NO CLOUDS BELOW 12,000 FEET WITH NO SIGNIFICANT WEATHER AND/OR OBSTRUCTIONS TO VISIBILITY NCZ015>017-031-032-045>047-102-103-280300- NORTH COAST CITY SKY/WX TMP DP RH WIND PRES REMARKS EDENTON CLOUDY 41 39 92 N8 29.79S ELIZABETH CITY CLOUDY 41 38 89 N15 29.78S KITTY HAWK CLOUDY 40 38 93 N13G23 29.74F MANTEO CLOUDY 40 38 91 N22G33 29.76F $$ NCZ045>047-081-094-103-104-280300- CENTRAL COAST CITY SKY/WX TMP DP RH WIND PRES REMARKS FRISCO CLOUDY 43 39 86 N14G28 29.73R SWANQUARTER N/A 43 N/A N/A N10G18 29.71S $$ NCZ095-097-098-100-101-280300- SOUTHERN COAST CITY SKY/WX TMP DP RH WIND PRES REMARKS BEAUFORT CLOUDY 43 42 97 N14 29.74R CEDAR ISLAND N/A 45 N/A N/A N16G29 29.79R JACKSONVILLE CLOUDY 44 39 82 N12 29.76F PINEY ISLAND CLOUDY N/A N/A N/A N17G25 29.74S WILMINGTON CLOUDY 44 41 89 N13 29.78R $$ NCZ011>013-027>030-043-044-078>080-089-090>093-098-280300- COASTAL PLAIN CITY SKY/WX TMP DP RH WIND PRES REMARKS AHOSKIE CLOUDY 40 38 93 NE5 29.80F CLINTON CLOUDY 44 41 90 N3 29.82R ELIZABETHTOWN CLOUDY 44 42 91 CALM 29.81R GOLDSBORO CLOUDY 43 42 98 N6 29.78R GREENVILLE CLOUDY 41 39 93 N5 29.82S HAVELOCK CLOUDY 44 40 85 N15 29.76R KENANSVILLE CLOUDY 42 39 89 N8 29.81R KINSTON NOT AVBL NEW BERN CLOUDY 44 40 85 N10 29.77F RICHLANDS CLOUDY 43 36 75 N8 29.78S ROCKY MOUNT CLOUDY 42 37 82 NW8 29.80F WASHINGTON CLOUDY 41 39 91 N7 29.78S WHITEVILLE CLOUDY 45 40 84 N7 29.81R $$ AMZ130-135-150-152-154-156-158-170-250-252-270-ANZ085-086-088-633-658-670-280300- MARINE OBSERVATIONS STATION/POSITION TIME TEMP WIND PRES WAVE SWELL AIR SEA DIR/SP/G HT/PER HT/PER (UTC) (F) (DEG/KT/KT) (MB) (FT/S) (FT/S) CHESAPEAKE LIGHT 0100 39 360/ 19/ 21 1009.2 64 E VA BEACH 0150 44 57 350/ 25/ 29 1005.5 9/ 7 5/10 DUCK 0100 41 41 360/ 19/ 25 1006.7 2 E DUCK 0111 41 N/A 6/ 7 2/11 10 NE DUCK NOT AVBL OREGON INLET 0100 40 50 350/ 13/ 18 1007.2 HATTERAS CG 0100 45 57 360/ 26/ 30 1006.5 CAPE LOOKOUT 0200 46 10/ 18/ 23 1006.5 BEAUFORT LAB 0100 46 58 360/ 14/ 19 1006.0 27 SE WRIGHTSVLE 0100 48 64 30/ 23/ 27 1006.8 5 SE WRIGHTSVLE 0100 48 56 360/ 21/ 23 1006.5 225 S CAPE HAT 0150 70 69 210/ 23/ 27 1006.3 10/ 8 41 SE CHARLESTON 0150 55 69 340/ 21/ 27 1007.8 6/ 6 2/15 $$

USA.gov is the U.S. government's official web portal to all federal, state and local government web resources and services.